Regional Weather Roundup
Issued by NWS

Home | Current Version | Previous Version | Text Only | Print | Product List | Glossary Off
Versions: 1 2 3 4 5 6 7 8 9 10 11 12 13 14 15 16 17 18 19 20 21 22 23 24 25 26 27 28 29 30 31 32 33 34 35 36 37 38 39 40 41 42 43 44 45 46 47 48 49 50

781
ASUS43 KLMK 260202
RWRKY
KENTUCKY REGIONAL WEATHER ROUNDUP
NATIONAL WEATHER SERVICE LOUISVILLE KY
1000 PM EDT SUN JUN 25 2017

NOTE "FAIR" INDICATES FEW OR NO CLOUDS BELOW 12,000 FEET
WITH NO SIGNIFICANT WEATHER AND/OR OBSTRUCTIONS TO VISIBILITY.

KYZ001>023-026-027-061>063-070>075-260300-
WESTERN AND SOUTH CENTRAL KENTUCKY

CITY           SKY/WX    TMP DP  RH WIND       PRES   REMARKS
PADUCAH        CLEAR     68  62  81 CALM      30.14S
HENDERSON      CLEAR     66  61  84 CALM      30.14S
OWENSBORO      CLEAR     69  55  60 SW3       30.14S
HOPKINSVILLE   CLEAR     72  56  57 SW3       30.16R
BOWLING GREEN  CLEAR     72  55  55 SW3       30.16R
GLASGOW        NOT AVBL
$$

KYZ024-025-028>034-038-045-046-053-260300-
NORTH CENTRAL KENTUCKY

CITY           SKY/WX    TMP DP  RH WIND       PRES   REMARKS
LOUISVILLE/SDF PTCLDY    73  46  38 W5        30.13S
LOUISVILLE/LOU CLEAR     74  47  38 W5        30.13S
FORT KNOX      CLEAR     64  53  68 CALM      30.13R
$$

KYZ035>037-039>044-047>052-055>060-089>105-260300-
NORTHEAST KENTUCKY

CITY           SKY/WX    TMP DP  RH WIND       PRES   REMARKS
LEXINGTON      CLEAR     69  48  47 W5        30.14S
COVINGTON      PTCLDY    66  50  56 NW3       30.12S
FRANKFORT      CLEAR     69  45  41 CALM      30.12S
$$

KYZ054-064>069-076>088-106>120-260300-
SOUTHEAST KENTUCKY

CITY           SKY/WX    TMP DP  RH WIND       PRES   REMARKS
JACKSON        PTCLDY    67  51  56 CALM      30.16S
LONDON         PTCLDY    68  51  54 CALM      30.18R
SOMERSET       CLEAR     66  52  59 CALM      30.18S
MIDDLESBORO    CLEAR     64  52  65 W7        30.20R
MONTICELLO     CLEAR     61  59  93 NW9       30.20R
$$





USA.gov is the U.S. government's official web portal to all federal, state and local government web resources and services.